Location: Sobotiste
(48.7170°N, 17.4000°E)
Time: 03:48:16
(UTC+01:00)

Envisat - Visible Passes

Search period start: 20 January 2019 00:00
Search period end: 30 January 2019 00:00
Orbit: 764 x 766 km, 98.2° (Epoch: 19 January)

Date Brightness Start Highest point End Pass type
(mag) Time Alt. Az. Time Alt. Az. Time Alt. Az.
20 Jan 6.0 06:07:44 10° NE 06:10:33 15° E 06:13:22 10° ESE visible
20 Jan 3.8 17:25:30 10° ESE 17:29:51 30° ENE 17:34:13 10° N visible
20 Jan 4.1 19:03:53 10° S 19:08:42 43° W 19:13:34 10° NNW visible
21 Jan 2.9 18:26:46 10° SSE 18:31:52 88° WSW 18:36:59 10° NNW visible
21 Jan 6.0 20:09:18 10° WSW 20:11:38 13° W 20:13:59 10° WNW visible
22 Jan 5.6 06:32:17 10° NE 06:36:24 24° E 06:40:30 10° SE visible
22 Jan 3.2 17:50:22 10° SE 17:55:12 46° ENE 18:00:04 10° N visible
22 Jan 5.0 19:30:11 10° SSW 19:34:26 27° W 19:38:44 10° NW visible
23 Jan 6.3 05:57:24 10° ENE 05:59:11 12° E 06:00:58 10° ESE visible
23 Jan 4.0 17:14:41 10° ESE 17:18:45 25° ENE 17:22:49 10° N visible
23 Jan 3.7 18:52:29 10° S 18:57:28 54° W 19:02:27 10° NNW visible
24 Jan 4.7 06:57:23 10° NNE 07:02:10 39° E 07:06:54 10° SSE visible
24 Jan 2.9 18:15:36 10° SSE 18:20:40 76° ENE 18:25:46 10° N visible
24 Jan 5.7 19:57:08 10° SW 20:00:17 16° W 20:03:26 10° NW visible
25 Jan 5.9 06:21:24 10° NE 06:25:05 20° E 06:28:46 10° SE visible
25 Jan 3.4 17:39:24 10° SE 17:44:03 38° ENE 17:48:45 10° N visible
25 Jan 4.7 19:18:36 10° SSW 19:23:09 33° W 19:27:43 10° NNW visible
26 Jan 3.3 18:41:10 10° S 18:46:13 67° WSW 18:51:18 10° NNW visible
27 Jan 5.1 06:46:19 10° NNE 06:50:53 32° E 06:55:25 10° SSE visible
27 Jan 3.0 18:04:29 10° SSE 18:09:29 62° ENE 18:14:31 10° N visible
27 Jan 5.5 19:45:14 10° SW 19:48:56 20° W 19:52:40 10° NW visible
28 Jan 6.0 06:10:38 10° NE 06:13:44 16° E 06:16:50 10° SE visible
28 Jan 3.7 17:28:29 10° SE 17:32:56 32° ENE 17:37:25 10° N visible
28 Jan 4.3 19:07:06 10° SSW 19:11:52 40° W 19:16:39 10° NNW visible
29 Jan 3.0 18:29:55 10° SSE 18:34:59 82° WSW 18:40:07 10° NNW visible
29 Jan 6.1 20:12:58 10° WSW 20:14:50 12° W 20:16:43 10° WNW visible
